Location: Newark
(44.6768°N, 22.5302°E)
Time: 04:50:20
(UTC+00:00)

DX 1 - Visible Passes

Search period start: 26 June 2022 00:00
Search period end: 06 July 2022 00:00
Orbit: 618 x 628 km, 98.4° (Epoch: 25 June)

Date Brightness Start Highest point End Pass type
(mag) Time Alt. Az. Time Alt. Az. Time Alt. Az.
26 Jun ? 19:29:42 10° NNE 19:34:03 59° ESE 19:38:20 10° S visible
26 Jun ? 21:07:03 10° NNW 21:09:42 16° WNW 21:12:20 10° W visible
27 Jun ? 19:47:55 10° NNE 19:52:19 89° NW 19:56:42 10° SSW visible
27 Jun ? 21:26:38 10° NW 21:27:44 11° WNW 21:28:50 10° WNW visible
28 Jun ? 20:06:15 10° N 20:10:34 58° WNW 20:14:51 10° SSW visible
29 Jun ? 20:24:42 10° N 20:28:45 38° WNW 20:32:48 10° SW visible
30 Jun ? 19:06:57 10° NNE 19:10:55 33° E 19:14:51 10° SSE visible
30 Jun ? 20:43:17 10° N 20:46:54 26° WNW 20:50:30 10° WSW visible
01 Jul ? 19:24:59 10° NNE 19:29:16 50° E 19:33:30 10° S visible
01 Jul ? 21:02:03 10° NNW 21:05:00 18° WNW 21:07:56 10° WSW visible
02 Jul ? 19:43:09 10° NNE 19:47:33 79° ESE 19:51:55 10° S visible
02 Jul ? 21:21:15 10° NW 21:23:02 12° WNW 21:24:50 10° W visible
03 Jul ? 20:01:27 10° N 20:05:48 67° WNW 20:10:07 10° SSW visible
04 Jul ? 20:19:51 10° N 20:24:00 44° WNW 20:28:08 10° SW visible
05 Jul ? 19:02:17 10° NE 19:06:05 28° E 19:09:51 10° SSE visible
05 Jul ? 20:38:22 10° N 20:42:09 29° WNW 20:45:56 10° SW visible
